TimeCDT,TemperatureF,Dew PointF,Humidity,Sea Level PressureIn,VisibilityMPH,Wind Direction,Wind SpeedMPH,Gust SpeedMPH,PrecipitationIn,Events,Conditions,WindDirDegrees,DateUTC
12:15 AM,73.4,62.6,69,29.98,10.0,Calm,Calm,-,N/A,,Clear,0,2013-06-24 05:15:00
12:35 AM,71.6,62.6,73,29.98,10.0,Calm,Calm,-,N/A,,Clear,0,2013-06-24 05:35:00
12:55 AM,71.6,62.6,73,29.98,10.0,SSE,4.6,-,N/A,,Clear,150,2013-06-24 05:55:00
1:15 AM,71.6,62.6,73,29.97,10.0,SE,5.8,-,N/A,,Clear,140,2013-06-24 06:15:00
1:35 AM,71.6,62.6,73,29.98,10.0,South,5.8,-,N/A,,Clear,170,2013-06-24 06:35:00
1:55 AM,71.6,62.6,73,29.97,10.0,South,10.4,-,N/A,,Clear,190,2013-06-24 06:55:00
2:15 AM,73.4,62.6,69,29.96,10.0,South,10.4,16.1,N/A,,Clear,190,2013-06-24 07:15:00
2:35 AM,73.4,62.6,69,29.97,10.0,South,9.2,-,N/A,,Clear,190,2013-06-24 07:35:00
2:55 AM,73.4,62.6,69,29.96,10.0,SSW,10.4,-,N/A,,Clear,200,2013-06-24 07:55:00
3:15 AM,73.4,62.6,69,29.96,10.0,South,8.1,-,N/A,,Clear,190,2013-06-24 08:15:00
3:35 AM,73.4,62.6,69,29.97,10.0,SSW,5.8,-,N/A,,Clear,200,2013-06-24 08:35:00
3:55 AM,73.4,62.6,69,29.97,10.0,SSW,6.9,-,N/A,,Clear,210,2013-06-24 08:55:00
4:15 AM,73.4,62.6,69,29.97,10.0,SSW,5.8,-,N/A,,Clear,200,2013-06-24 09:15:00
4:35 AM,73.4,62.6,69,29.98,10.0,SSW,8.1,-,N/A,,Clear,200,2013-06-24 09:35:00
4:55 AM,73.4,62.6,69,29.97,10.0,SSW,6.9,-,N/A,,Clear,210,2013-06-24 09:55:00
5:15 AM,71.6,62.6,73,29.98,10.0,SSW,5.8,-,N/A,,Clear,210,2013-06-24 10:15:00
5:35 AM,71.6,62.6,73,29.98,10.0,SSW,8.1,-,N/A,,Clear,200,2013-06-24 10:35:00
5:55 AM,73.4,64.4,73,29.99,10.0,SSW,6.9,-,N/A,,Clear,210,2013-06-24 10:55:00
6:15 AM,73.4,64.4,73,29.99,10.0,SSW,5.8,-,N/A,,Clear,210,2013-06-24 11:15:00
6:35 AM,73.4,64.4,73,30.00,10.0,SSW,4.6,-,N/A,,Clear,200,2013-06-24 11:35:00
6:55 AM,73.4,64.4,73,30.01,10.0,South,3.5,-,N/A,,Clear,180,2013-06-24 11:55:00
7:15 AM,75.2,66.2,73,30.01,10.0,SSE,5.8,-,N/A,,Clear,150,2013-06-24 12:15:00
7:35 AM,77.0,66.2,69,30.02,10.0,South,3.5,-,N/A,,Clear,180,2013-06-24 12:35:00
7:55 AM,78.8,66.2,65,30.03,10.0,SE,5.8,-,N/A,,Clear,140,2013-06-24 12:55:00
8:15 AM,78.8,66.2,65,30.04,10.0,SE,4.6,-,N/A,,Clear,140,2013-06-24 13:15:00
8:35 AM,78.8,66.2,65,30.04,10.0,South,5.8,-,N/A,,Clear,170,2013-06-24 13:35:00
8:55 AM,80.6,68.0,65,30.03,10.0,South,5.8,-,N/A,,Clear,180,2013-06-24 13:55:00
9:15 AM,80.6,69.8,70,30.02,10.0,SSW,9.2,-,N/A,,Clear,200,2013-06-24 14:15:00
9:35 AM,82.4,69.8,66,30.02,10.0,SSW,8.1,-,N/A,,Clear,210,2013-06-24 14:35:00
9:55 AM,82.4,69.8,66,30.03,10.0,South,4.6,-,N/A,,Clear,180,2013-06-24 14:55:00
10:15 AM,84.2,69.8,62,30.02,10.0,East,5.8,-,N/A,,Scattered Clouds,100,2013-06-24 15:15:00
10:35 AM,84.2,71.6,66,30.02,10.0,East,8.1,-,N/A,,Scattered Clouds,100,2013-06-24 15:35:00
10:55 AM,82.4,69.8,66,30.02,10.0,East,5.8,-,N/A,,Mostly Cloudy,90,2013-06-24 15:55:00
11:15 AM,82.4,71.6,70,30.01,10.0,East,8.1,-,N/A,,Overcast,80,2013-06-24 16:15:00
11:35 AM,80.6,69.8,70,30.01,10.0,East,11.5,-,N/A,,Overcast,90,2013-06-24 16:35:00
11:55 AM,82.4,71.6,70,30.02,10.0,East,9.2,-,N/A,,Mostly Cloudy,90,2013-06-24 16:55:00
12:15 PM,84.2,71.6,66,30.00,10.0,East,9.2,-,N/A,,Scattered Clouds,100,2013-06-24 17:15:00
12:35 PM,86.0,71.6,62,30.00,10.0,ESE,8.1,-,N/A,,Scattered Clouds,120,2013-06-24 17:35:00
12:55 PM,87.8,71.6,58,29.98,10.0,East,8.1,-,N/A,,Scattered Clouds,100,2013-06-24 17:55:00
1:15 PM,87.8,73.4,62,29.96,10.0,South,6.9,-,N/A,,Scattered Clouds,170,2013-06-24 18:15:00
1:35 PM,89.6,71.6,55,29.97,10.0,South,10.4,-,N/A,,Scattered Clouds,180,2013-06-24 18:35:00
1:55 PM,87.8,71.6,58,29.98,10.0,South,8.1,-,N/A,,Scattered Clouds,190,2013-06-24 18:55:00
2:15 PM,89.6,71.6,55,29.97,10.0,SSW,12.7,16.1,N/A,,Mostly Cloudy,210,2013-06-24 19:15:00
2:35 PM,89.6,71.6,55,29.95,10.0,SW,13.8,21.9,N/A,,Scattered Clouds,220,2013-06-24 19:35:00
2:55 PM,89.6,71.6,55,29.96,10.0,WSW,13.8,19.6,N/A,,Scattered Clouds,240,2013-06-24 19:55:00
3:15 PM,82.4,64.4,54,29.99,10.0,WNW,27.6,35.7,N/A,,Mostly Cloudy,300,2013-06-24 20:15:00
3:35 PM,73.4,62.6,69,29.98,7.0,WNW,10.4,24.2,N/A,Rain,Rain,300,2013-06-24 20:35:00
3:55 PM,73.4,62.6,69,29.98,10.0,NNE,3.5,-,0.01,,Scattered Clouds,20,2013-06-24 20:55:00
4:15 PM,71.6,62.6,73,29.99,10.0,ESE,3.5,-,N/A,,Clear,120,2013-06-24 21:15:00
4:35 PM,73.4,62.6,69,29.96,10.0,East,3.5,-,N/A,,Clear,100,2013-06-24 21:35:00
4:55 PM,73.4,64.4,73,29.94,10.0,East,6.9,-,N/A,,Clear,100,2013-06-24 21:55:00
5:15 PM,73.4,64.4,73,29.92,10.0,ESE,10.4,-,N/A,,Clear,120,2013-06-24 22:15:00
5:35 PM,73.4,64.4,73,29.92,10.0,ESE,8.1,-,N/A,,Clear,120,2013-06-24 22:35:00
5:55 PM,73.4,64.4,73,29.93,10.0,SSE,8.1,-,N/A,,Clear,160,2013-06-24 22:55:00
6:15 PM,73.4,64.4,73,29.92,10.0,SE,9.2,-,N/A,,Scattered Clouds,140,2013-06-24 23:15:00
6:35 PM,73.4,64.4,73,29.91,10.0,SE,4.6,-,N/A,,Scattered Clouds,130,2013-06-24 23:35:00
6:55 PM,75.2,64.4,69,29.91,10.0,East,6.9,-,N/A,,Clear,90,2013-06-24 23:55:00
7:15 PM,75.2,64.4,69,29.88,10.0,ENE,8.1,-,N/A,,Clear,60,2013-06-25 00:15:00
7:35 PM,75.2,64.4,69,29.88,10.0,East,5.8,-,N/A,,Clear,100,2013-06-25 00:35:00
7:55 PM,75.2,64.4,69,29.88,10.0,East,5.8,-,N/A,,Clear,100,2013-06-25 00:55:00
8:15 PM,75.2,64.4,69,29.87,10.0,East,3.5,-,N/A,,Clear,100,2013-06-25 01:15:00
8:35 PM,73.4,64.4,73,29.85,10.0,ESE,6.9,-,N/A,,Clear,110,2013-06-25 01:35:00
8:55 PM,73.4,64.4,73,29.85,10.0,East,5.8,-,N/A,,Clear,100,2013-06-25 01:55:00
9:15 PM,73.4,64.4,73,29.85,10.0,ESE,3.5,-,N/A,,Clear,120,2013-06-25 02:15:00
9:35 PM,73.4,64.4,73,29.86,10.0,ESE,3.5,-,N/A,,Clear,120,2013-06-25 02:35:00
9:55 PM,73.4,64.4,73,29.87,10.0,Calm,Calm,-,N/A,,Clear,0,2013-06-25 02:55:00
10:15 PM,71.6,64.4,78,29.88,10.0,Calm,Calm,-,N/A,,Clear,0,2013-06-25 03:15:00
10:35 PM,71.6,64.4,78,29.89,10.0,East,3.5,-,N/A,,Clear,90,2013-06-25 03:35:00
10:55 PM,73.4,64.4,73,29.90,10.0,ESE,3.5,-,N/A,,Clear,110,2013-06-25 03:55:00
11:15 PM,73.4,64.4,73,29.90,10.0,SE,3.5,-,N/A,,Clear,130,2013-06-25 04:15:00
11:35 PM,73.4,66.2,78,29.91,10.0,SE,4.6,-,N/A,,Clear,140,2013-06-25 04:35:00
11:55 PM,75.2,66.2,73,29.91,10.0,South,3.5,-,N/A,,Clear,170,2013-06-25 04:55:00